RH
40 42 44 50 52 53 55 59 61 61 60 62 62 63 63 66 64 69 70 74 80 80 91 88 82 92 96 94 96 91 87 87
43 46 48 53 54 55 57 61 64 64 66 68 66 66 66 69 71 74 74 80 82 87 93 94 94 98 99 99 99 98 94 86
46 50 50 54 55 58 58 62 66 68 72 70 70 69 71 76 78 81 83 81 86 88 96 95 93 98 98 100 100 100 98 91
45 51 55 56 58 59 57 62 65 70 72 74 74 76 79 83 85 83 86 87 89 93 91 96 93 98 100 100 100 100 98 96
44 52 58 59 60 59 56 58 62 73 74 77 80 82 84 84 86 88 90 86 92 91 95 90 97 97 98 99 99 99 100 98
51 54 54 55 59 60 57 55 63 73 76 79 82 84 86 88 91 93 94 92 96 94 94 96 97 98 99 99 99 100 100 100
49 48 52 56 56 56 48 57 65 72 77 82 87 89 90 91 92 96 98 98 98 95 97 98 98 99 99 98 99 99 98 99
52 52 58 57 58 55 48 55 66 71 77 80 88 90 81 84 85 89 97 100 99 97 97 97 98 99 97 98 97 99 100 100
55 55 54 58 64 62 58 63 67 68 71 76 80 78 80 74 80 88 90 94 97 90 97 100 97 99 98 95 98 100 100 100
62 58 56 62 67 68 68 69 71 71 68 69 79 74 64 53 52 53 77 87 93 85 88 94 100 98 100 100 100 97 99 100
66 72 64 69 76 70 43 56 78 81 68 44 62 61 64 70 60 58 51 66 77 76 79 88 89 94 100 100 100 100 100 100
83 83 62 65 77 81 69 32 57 79 86 74 55 53 60 66 58 59 55 49 58 70 78 77 74 95 97 100 100 100 100 100
97 85 76 77 76 78 89 72 44 40 64 83 74 58 52 61 61 58 58 54 51 64 68 71 70 61 81 92 96 97 100 100
99 93 84 86 74 81 73 83 80 63 53 66 70 64 53 53 63 66 58 58 54 57 67 71 72 66 55 76 93 94 94 100
92 98 92 90 80 74 75 80 72 67 67 54 53 58 54 52 53 55 56 57 56 56 69 77 81 70 63 62 78 94 94 96
87 94 95 93 93 76 53 63 60 58 65 58 52 48 48 50 52 54 55 56 59 57 68 76 89 81 73 66 69 90 97 94
75 74 79 77 75 73 72 59 56 46 44 46 46 48 46 51 53 56 58 59 61 63 63 81 88 92 71 77 74 80 95 94
66 64 58 53 61 58 49 44 46 41 42 44 46 48 51 51 54 58 61 60 52 66 68 79 86 92 89 80 82 83 87 96
62 58 49 47 43 41 40 39 38 39 42 46 50 53 56 59 61 63 68 73 76 75 78 81 86 86 90 89 86 89 88 91
Wind_Speed
22 19 15 14 12 11 12 13 14 15 17 16 17 19 18 16 20 20 21 23 22 23 20 23 25 23 22 23 24 24 25 26
23 19 16 17 13 13 15 16 18 20 22 23 23 22 21 21 20 21 23 24 24 22 22 22 22 21 22 23 23 23 21 21
16 20 16 18 16 15 15 16 18 20 20 20 19 18 18 20 23 24 23 25 24 22 21 23 23 23 23 21 21 22 19 21
12 16 19 19 16 14 14 14 17 19 18 19 18 17 18 21 24 23 24 23 22 23 25 23 25 21 20 21 21 21 20 20
12 15 20 19 15 12 12 12 15 15 17 19 20 20 17 19 19 20 22 23 22 25 23 25 22 22 21 21 18 22 19 19
11 16 22 17 14 13 12 13 15 14 16 18 19 18 16 16 18 19 21 22 22 26 26 26 25 23 22 21 22 20 19 19
14 20 21 19 15 13 14 16 15 13 13 16 17 17 16 17 19 19 20 22 23 27 26 28 26 26 25 23 20 18 19 19
8 10 18 19 17 14 13 16 15 13 13 15 16 15 17 18 21 21 20 21 24 28 28 29 30 30 28 24 23 23 21 19
8 14 19 17 17 15 11 13 16 15 13 15 16 16 17 18 18 18 18 20 20 24 28 28 29 29 28 28 26 24 25 23
10 16 17 15 16 13 9 10 15 13 12 11 14 15 18 23 25 28 19 19 18 22 25 28 28 29 28 26 27 30 27 29
8 14 15 13 12 10 9 9 11 13 11 15 14 15 14 18 23 25 30 24 23 26 28 29 30 32 29 27 27 30 29 31
8 14 13 11 9 10 10 12 11 11 10 11 17 18 15 16 20 23 27 29 26 28 30 34 35 30 30 28 28 32 32 32
7 14 14 11 11 11 9 10 15 14 9 8 9 14 18 15 16 20 22 28 28 26 31 34 35 36 33 32 32 33 34 35
8 11 13 12 11 11 11 11 9 11 12 10 8 9 15 17 16 18 20 24 27 25 28 32 30 35 37 33 31 32 34 35
9 7 12 12 11 10 11 12 10 8 7 12 12 12 13 15 18 20 21 21 23 26 27 29 32 28 31 34 35 32 32 35
11 9 11 13 12 12 12 12 11 10 9 8 11 12 13 14 17 17 18 21 22 26 27 29 30 30 26 29 32 34 34 35
14 12 15 14 15 15 14 14 14 14 12 11 11 12 14 16 17 18 18 18 21 25 29 29 30 29 22 22 28 30 30 34
14 14 17 17 18 15 17 15 16 14 13 13 13 14 15 15 15 16 17 19 22 24 27 28 29 28 24 23 23 27 30 29
12 18 19 20 20 19 17 16 16 16 16 15 14 14 15 16 15 16 16 17 20 25 24 26 25 29 25 23 22 23 27 29
Wind_Direction
113 108 93 87 75 61 49 41 31 26 37 33 33 38 33 30 21 16 4 5 359 358 352 347 338 333 327 321 319 314 306 307
116 114 106 96 79 65 53 43 28 32 33 26 31 32 33 23 17 6 8 5 2 2 357 352 346 336 324 315 314 314 312 313
122 119 111 100 87 75 63 51 37 35 34 32 32 32 27 29 19 20 15 11 7 3 358 353 346 335 329 323 319 312 306 306
127 121 115 101 87 75 69 60 41 33 33 39 41 41 33 24 20 16 12 11 9 5 0 351 350 342 329 325 322 317 312 309
121 117 106 103 96 80 75 59 48 44 35 46 45 42 35 25 18 13 11 14 10 6 3 356 353 349 341 333 322 317 310 305
109 111 112 112 108 93 78 74 64 52 40 45 49 46 41 29 20 16 15 13 12 9 9 7 3 358 351 344 339 330 318 297
110 119 122 111 103 91 78 79 72 57 43 46 48 46 36 28 22 18 14 12 12 10 10 12 11 7 3 358 355 347 343 327
113 117 105 103 94 78 85 70 75 63 52 49 47 44 39 34 25 22 18 16 15 11 15 15 14 14 14 14 9 5 355 349
110 107 104 102 98 87 92 79 69 70 64 56 55 49 46 39 34 28 27 23 18 18 20 20 20 17 17 21 16 14 11 10
117 113 111 100 108 105 108 110 81 76 70 65 66 56 61 53 50 46 41 34 29 31 32 28 24 26 22 20 19 18 18 20
115 102 113 112 111 112 108 114 100 89 76 70 73 68 69 60 52 48 45 47 45 45 42 34 35 26 27 22 23 21 21 22
130 113 118 124 117 127 109 96 114 115 101 83 75 69 66 60 58 54 48 48 50 49 45 42 37 30 28 29 27 28 25 24
108 126 137 131 119 133 124 120 96 85 114 117 89 75 64 58 62 60 53 47 47 50 52 50 40 38 35 36 33 36 30 23
140 133 148 150 163 150 159 137 123 106 87 100 81 92 72 61 59 66 56 50 43 48 54 52 46 37 36 40 41 41 42 35
157 151 167 153 163 169 158 149 138 125 131 91 85 85 79 70 71 71 64 57 43 45 53 54 49 44 35 38 43 38 40 40
164 165 167 174 176 173 146 149 144 142 142 116 95 87 87 81 74 70 66 61 51 44 49 51 47 41 39 37 40 39 35 37
164 164 171 179 184 179 170 165 152 131 122 120 108 101 95 87 80 74 65 59 58 51 48 46 45 37 40 40 42 42 39 37
161 164 170 176 184 179 160 150 145 139 127 117 108 101 96 91 86 78 70 63 60 57 48 50 43 39 38 41 43 44 42 40
155 158 168 173 160 152 151 145 133 124 117 111 109 103 96 93 89 84 76 68 59 55 55 50 47 42 41 41 43 44 43 42